EZY139 LOWW-EDDN

Flight info

Callsign EZY139
Flight time N/A
Altitude 30000
Route LUGEM1C/29 LUGEM DCT SUBEN T161 AKINI Z109 UPALA UPALA1V
Aircraft A20N/M-SDE2E3FGHIRWXY/LB1

Departure

Time 2026-04-25 19:35
Airport Vienna International Airport (LOWW)

Arrival

Time N/A
Airport Nuremberg Airport (EDDN)
Time Latitude Longitude Altitude Speed Heading
2026-04-25 19:01 48.11737 16.56677 606 ft 0 kts 27°
2026-04-25 19:24 48.11730 16.56671 622 ft 3 kts 27°
2026-04-25 19:24 48.11714 16.56659 610 ft 3 kts 27°
2026-04-25 19:24 48.11687 16.56627 619 ft 2 kts 55°
2026-04-25 19:25 48.11679 16.56598 618 ft 0 kts 115°
2026-04-25 19:28 48.11669 16.56632 617 ft 5 kts 114°
2026-04-25 19:29 48.11657 16.56677 618 ft 4 kts 115°
2026-04-25 19:29 48.11636 16.56743 614 ft 10 kts 109°
2026-04-25 19:29 48.11614 16.56808 621 ft 6 kts 114°
2026-04-25 19:29 48.11597 16.56863 619 ft 6 kts 116°
2026-04-25 19:30 48.11571 16.56921 622 ft 9 kts 145°
2026-04-25 19:30 48.11528 16.56915 625 ft 9 kts 210°
2026-04-25 19:30 48.11454 16.56859 623 ft 11 kts 206°
2026-04-25 19:30 48.11392 16.56821 621 ft 7 kts 187°
2026-04-25 19:31 48.11349 16.56846 621 ft 12 kts 130°
2026-04-25 19:31 48.11317 16.56947 625 ft 9 kts 117°
2026-04-25 19:31 48.11287 16.57033 626 ft 10 kts 118°
2026-04-25 19:31 48.11254 16.57127 631 ft 10 kts 117°
2026-04-25 19:32 48.11227 16.57222 632 ft 10 kts 113°
2026-04-25 19:32 48.11194 16.57318 632 ft 11 kts 117°
2026-04-25 19:32 48.11156 16.57438 627 ft 14 kts 117°
2026-04-25 19:32 48.11142 16.57478 627 ft 12 kts 118°
2026-04-25 19:33 48.11069 16.57523 631 ft 0 kts 205°
2026-04-25 19:33 48.11065 16.57520 630 ft 6 kts 205°
2026-04-25 19:33 48.10988 16.57461 627 ft 11 kts 207°
2026-04-25 19:34 48.10960 16.57389 631 ft 5 kts 288°
2026-04-25 19:34 48.10969 16.57361 631 ft 0 kts 300°
2026-04-25 19:34 48.10970 16.57359 630 ft 1 kts 300°
2026-04-25 19:34 48.11030 16.57175 630 ft 51 kts 297°
2026-04-25 19:35 48.11284 16.56403 626 ft 114 kts 296°
2026-04-25 19:35 48.11711 16.55098 678 ft 155 kts 291°
2026-04-25 19:35 48.12189 16.53643 1189 ft 156 kts 290°
2026-04-25 19:35 48.12223 16.52111 1868 ft 152 kts 250°
2026-04-25 19:36 48.11471 16.50810 2301 ft 185 kts 223°
2026-04-25 19:36 48.10313 16.49662 2697 ft 210 kts 216°
2026-04-25 19:36 48.09037 16.48515 3333 ft 217 kts 214°
2026-04-25 19:36 48.07764 16.47299 4053 ft 218 kts 218°
2026-04-25 19:37 48.06554 16.45883 4748 ft 223 kts 220°
2026-04-25 19:37 48.05345 16.44355 5343 ft 233 kts 221°
2026-04-25 19:37 48.04053 16.42689 5721 ft 259 kts 221°
2026-04-25 19:37 48.02648 16.40863 6429 ft 272 kts 221°
2026-04-25 19:38 48.01212 16.38999 7385 ft 275 kts 221°
2026-04-25 19:38 47.99787 16.37069 8397 ft 277 kts 226°
2026-04-25 19:38 47.98593 16.34882 9397 ft 275 kts 238°
2026-04-25 19:38 47.97742 16.32339 10297 ft 276 kts 251°
2026-04-25 19:39 47.97240 16.29445 10716 ft 296 kts 260°
2026-04-25 19:39 47.97096 16.26314 10988 ft 318 kts 271°
2026-04-25 19:39 47.97299 16.22965 11596 ft 328 kts 277°
2026-04-25 19:39 47.97702 16.19575 12403 ft 333 kts 281°
2026-04-25 19:40 47.98230 16.16195 13295 ft 335 kts 282°
2026-04-25 19:40 47.98812 16.12873 14003 ft 318 kts 283°
2026-04-25 19:40 47.99371 16.09804 14092 ft 297 kts 283°
2026-04-25 19:40 47.99908 16.06897 13949 ft 284 kts 283°
2026-04-25 19:41 48.00420 16.04111 13834 ft 272 kts 284°
2026-04-25 19:41 48.01019 16.01532 13892 ft 260 kts 292°
2026-04-25 19:41 48.01567 15.99856 13979 ft 281 kts 295°
2026-04-25 19:41 48.02224 15.98078 14152 ft 297 kts 297°
2026-04-25 19:42 48.04075 15.93433 14820 ft 324 kts 295°
2026-04-25 19:42 48.04746 15.91413 15217 ft 331 kts 293°
2026-04-25 19:42 48.05766 15.88265 15748 ft 342 kts 294°